(221240) = 2005 UT214

Discovered at Palomar on 2005-10-27 by NEAT.

Orbit

Orbit type: Main Belt

Note: WebGL enabled browser required.

epoch2023-09-13.0
epoch JD2460200.5
perihelion date2020-10-04.94798
perihelion JD2459127.44798
argument of perihelion (°)301.46057
ascending node (°)176.46390
inclination (°)11.56428
eccentricity0.1638593
perihelion distance (AU)2.3349315
Tisserand w.r.t. Jupiter3.3
ΔV w.r.t. Earth (km/sec)10.2
semimajor axis (AU)2.7925103
mean anomaly (°)226.63785
mean daily motion (°/day)0.21120860
aphelion distance (AU)3.250
period (years)4.67
P-vector [x]-0.46937516
P-vector [y]0.86281851
P-vector [z]0.18769969
Q-vector [x]-0.88291227
Q-vector [y]-0.46157949
Q-vector [z]-0.08608304
absolute magnitude15.86
phase slope0.15
uncertainty0
referenceMPO 778542
observations used600
oppositions15
arc length (days)8440
first opposition used2000
last opposition used2023
residual rms (arc-secs)0.71
perturbers coarse indicatorM-v
perturbers precise indicator003Ek
first observation date used2000-09-27.0
last observation date used2023-11-06.0
computer nameMPCLINUX
JD of orbit computation2456966.910330
perihelion JD uncertainty (days)1.0692E-04
argument of perihelion uncertainty (°)2.4155E-05
ascending node uncertainty (°)1.2663E-05
inclination uncertainty (°)4.8977E-06
eccentricity uncertainty 2.9277E-08
perihelion distance uncertainty (AU)7.5849E-08
Minimum Orbit Intersection Distances (in AU)
for orbit epoch: 2460200.5, reference: E2023-V87
Mercury2.02274
Venus1.63898
Earth1.37243
Mars0.75872
Jupiter1.90551
Saturn6.5578
Uranus15.906
Neptune26.8824

Observations

624 total observations over interval: 1998 04 21.22130 – 2023 11 06.260076
These data are available for download (format description).

Date (UT) J2000 RA J2000 Dec Magn Location Ref
1998 04 21.22130 13 38 37.64 -00 39 59.5 19.5   704 – Lincoln Laboratory ETS, New Mexico MPS 213743
1998 04 21.24136 13 38 36.54 -00 39 53.3 19.4   704 – Lincoln Laboratory ETS, New Mexico MPS 213743
1998 04 21.26139 13 38 35.69 -00 39 45.6 19.4   704 – Lincoln Laboratory ETS, New Mexico MPS 213743
1998 04 21.28149 13 38 34.55 -00 39 33.6 19.5   704 – Lincoln Laboratory ETS, New Mexico MPS 213743
2000 09 27.27681 23 42 17.45 -02 20 38.5 20.0 V 691 – Steward Observatory, Kitt Peak-Spacewatch MPS 200407
2000 09 27.29760 23 42 16.49 -02 20 48.9 20.1 V 691 – Steward Observatory, Kitt Peak-Spacewatch MPS 200407
2000 09 27.31840 23 42 15.55 -02 20 59.1 20.3 V 691 – Steward Observatory, Kitt Peak-Spacewatch MPS 200407
2005 08 30.48242 02 11 48.79 +07 54 01.2 20.4 R 644 – Palomar Mountain/NEAT MPS 159029
2005 08 30.49517 02 11 48.88 +07 53 58.3 20.1 R 644 – Palomar Mountain/NEAT MPS 159029
2005 08 30.50558 02 11 48.97 +07 53 55.5 19.7 R 644 – Palomar Mountain/NEAT MPS 159029
2005 09 23.35441 02 08 41.02 +05 30 09.3 20.2 V 691 – Steward Observatory, Kitt Peak-Spacewatch MPS 159029
2005 09 23.37201 02 08 40.57 +05 30 01.3 20.2 V 691 – Steward Observatory, Kitt Peak-Spacewatch MPS 159029
2005 09 23.38961 02 08 40.11 +05 29 53.1 20.1 V 691 – Steward Observatory, Kitt Peak-Spacewatch MPS 159029
2005 10 01.36851 02 04 45.87 +04 25 53.8 19.8 V 703 – Catalina Sky Survey MPS 159029
2005 10 01.37793 02 04 45.55 +04 25 49.5 19.6 V 703 – Catalina Sky Survey MPS 159029
2005 10 01.38737 02 04 45.22 +04 25 43.9 20.2 V 703 – Catalina Sky Survey MPS 159029
2005 10 01.39676 02 04 44.83 +04 25 40.6 19.9 V 703 – Catalina Sky Survey MPS 159029
2005 10 06.30059 02 01 45.30 +03 43 56.9 19.4 V 703 – Catalina Sky Survey MPS 159029
2005 10 06.30608 02 01 45.15 +03 43 54.5 19.9 V 703 – Catalina Sky Survey MPS 159029
2005 10 06.31156 02 01 44.97 +03 43 51.2 19.7 V 703 – Catalina Sky Survey MPS 159029
2005 10 06.31714 02 01 44.68 +03 43 49.1 19.3 V 703 – Catalina Sky Survey MPS 159029
2005 10 26.304207 01 46 51.860 +00 54 31.98 19.47 V 645 – Apache Point-Sloan Digital Sky Survey MPS 390317
2005 10 26.30457 01 46 51.86 +00 54 31.9 20.1   705 – Apache Point MPS 211820
2005 10 26.30541 01 46 51.82 +00 54 31.5 19.5 V 705 – Apache Point MPS 211820
2005 10 26.307679 01 46 51.694 +00 54 30.36 20.20   645 – Apache Point-Sloan Digital Sky Survey MPS 390317
2005 10 27.22410 01 46 09.13 +00 47 23.8 18.7 R 644 – Palomar Mountain/NEAT MPS 149837
2005 10 27.24559 01 46 08.10 +00 47 14.0 19.0 R 644 – Palomar Mountain/NEAT MPS 149837
2005 10 27.25308 01 46 07.64 +00 47 11.3 19.3   704 – Lincoln Laboratory ETS, New Mexico MPS 152277
2005 10 27.26497 01 46 07.11 +00 47 05.7 19.5   704 – Lincoln Laboratory ETS, New Mexico MPS 152277
2005 10 27.27164 01 46 06.84 +00 47 02.2 18.8 R 644 – Palomar Mountain/NEAT MPS 149837
2005 10 27.27680 01 46 06.54 +00 46 58.8 19.2   704 – Lincoln Laboratory ETS, New Mexico MPS 152277
2005 10 27.28873 01 46 06.01 +00 46 55.4 20.2   704 – Lincoln Laboratory ETS, New Mexico MPS 152277
2005 10 27.324557 01 46 04.237 +00 46 37.31 19.62 V 645 – Apache Point-Sloan Digital Sky Survey MPS 390317
2005 10 27.32492 01 46 04.23 +00 46 37.2 19.9   705 – Apache Point MPS 211820
2005 10 27.32575 01 46 04.20 +00 46 36.9 19.5 V 705 – Apache Point MPS 211820
2005 10 27.328029 01 46 04.073 +00 46 35.80 20.35   645 – Apache Point-Sloan Digital Sky Survey MPS 390317
2005 10 28.27144 01 45 20.44 +00 39 23.5 19.6 V 703 – Catalina Sky Survey MPS 149837
2005 10 28.27678 01 45 20.08 +00 39 21.7 19.4 V 703 – Catalina Sky Survey MPS 149837
2005 10 28.28214 01 45 19.94 +00 39 18.4 19.6 V 703 – Catalina Sky Survey MPS 149838
2005 10 28.28751 01 45 19.62 +00 39 18.0 19.2 V 703 – Catalina Sky Survey MPS 149838
2005 10 30.290967 01 43 47.542 +00 24 22.80 19.69 V 645 – Apache Point-Sloan Digital Sky Survey MPS 390317
2005 10 30.29133 01 43 47.54 +00 24 22.8 20.3   705 – Apache Point MPS 211820
2005 10 30.29215 01 43 47.50 +00 24 22.4 19.7 V 705 – Apache Point MPS 211820
2005 10 30.294439 01 43 47.374 +00 24 21.29 20.43   645 – Apache Point-Sloan Digital Sky Survey MPS 390317
2005 11 01.25574 01 42 18.94 +00 10 20.6 18.7 R 644 – Palomar Mountain/NEAT MPS 152277
2005 11 01.33135 01 42 15.43 +00 09 48.5 18.7 R 644 – Palomar Mountain/NEAT MPS 152277
2005 11 01.39408 01 42 12.55 +00 09 22.4 19.1 R 644 – Palomar Mountain/NEAT MPS 152277
2005 11 02.374187 01 41 29.094 +00 02 36.69 19.71 V 645 – Apache Point-Sloan Digital Sky Survey MPS 390317
2005 11 02.37455 01 41 29.09 +00 02 36.6 20.0   705 – Apache Point MPS 236268
2005 11 02.37538 01 41 29.06 +00 02 36.3 19.6 V 705 – Apache Point MPS 236268
2005 11 02.377659 01 41 28.940 +00 02 35.22 20.30   645 – Apache Point-Sloan Digital Sky Survey MPS 390317
2005 11 03.306817 01 40 48.378 -00 03 40.45 19.68 V 645 – Apache Point-Sloan Digital Sky Survey MPS 390317
2005 11 03.30718 01 40 48.38 -00 03 40.4 19.7   705 – Apache Point MPS 211820
2005 11 03.30801 01 40 48.34 -00 03 40.8 19.4 V 705 – Apache Point MPS 211820
2005 11 03.310289 01 40 48.225 -00 03 41.85 20.45   645 – Apache Point-Sloan Digital Sky Survey MPS 390317
2005 11 05.344607 01 39 21.147 -00 16 53.38 19.76 V 645 – Apache Point-Sloan Digital Sky Survey MPS 390317
2005 11 05.34498 01 39 21.14 -00 16 53.4 20.3   705 – Apache Point MPS 211547
2005 11 05.34581 01 39 21.11 -00 16 53.6 19.7 V 705 – Apache Point MPS 211547
2005 11 05.348079 01 39 21.000 -00 16 54.69 20.55   645 – Apache Point-Sloan Digital Sky Survey MPS 390317
2005 11 12.288777 01 34 49.944 -00 56 05.78 19.87 V 645 – Apache Point-Sloan Digital Sky Survey MPS 390317
2005 11 12.292249 01 34 49.809 -00 56 06.74 20.36   645 – Apache Point-Sloan Digital Sky Survey MPS 390317
2007 02 22.32945 11 04 35.34 +00 21 53.2 18.7   704 – Lincoln Laboratory ETS, New Mexico MPS 200407
2007 02 22.34105 11 04 34.71 +00 21 58.4 19.2   704 – Lincoln Laboratory ETS, New Mexico MPS 200407
2007 02 22.35261 11 04 34.28 +00 22 04.2 19.2   704 – Lincoln Laboratory ETS, New Mexico MPS 200407
2007 02 22.36417 11 04 33.76 +00 22 11.0 19.4   704 – Lincoln Laboratory ETS, New Mexico MPS 200407
2007 02 24.31129 11 03 12.80 +00 40 44.7 18.6   704 – Lincoln Laboratory ETS, New Mexico MPS 201538
2007 02 24.32300 11 03 12.45 +00 40 48.9 18.8   704 – Lincoln Laboratory ETS, New Mexico MPS 201538
2007 02 24.33499 11 03 11.77 +00 40 58.2 18.8   704 – Lincoln Laboratory ETS, New Mexico MPS 201538
2007 02 24.34719 11 03 11.27 +00 41 04.0 18.8   704 – Lincoln Laboratory ETS, New Mexico MPS 201538
2007 02 25.27166 11 02 32.23 +00 50 02.6 18.4   704 – Lincoln Laboratory ETS, New Mexico MPS 201538
2007 02 25.28320 11 02 31.71 +00 50 08.9 18.7   704 – Lincoln Laboratory ETS, New Mexico MPS 201538
2007 02 25.29473 11 02 31.22 +00 50 15.9 18.4   704 – Lincoln Laboratory ETS, New Mexico MPS 201538
2007 02 25.30628 11 02 30.70 +00 50 22.6 18.9   704 – Lincoln Laboratory ETS, New Mexico MPS 201538
2007 03 09.29753 10 53 48.78 +02 52 37.3 18.1 R 644 – Palomar Mountain/NEAT MPS 203106
2007 03 09.31793 10 53 47.84 +02 52 50.4 18.8 R 644 – Palomar Mountain/NEAT MPS 203106
2007 03 09.33941 10 53 46.87 +02 53 03.7 18.8 R 644 – Palomar Mountain/NEAT MPS 203106
2007 03 10.25773 10 53 07.79 +03 02 35.9 18.8 R 644 – Palomar Mountain/NEAT MPS 203106
2007 03 10.27802 10 53 06.87 +03 02 48.5 18.7 R 644 – Palomar Mountain/NEAT MPS 203106
2007 03 10.29835 10 53 05.98 +03 03 01.2 18.6 R 644 – Palomar Mountain/NEAT MPS 203106
2007 03 12.29038 10 51 42.04 +03 23 38.5 18.2 V G96 – Mt. Lemmon Survey MPS 203106
2007 03 12.29867 10 51 41.68 +03 23 43.9 18.3 V G96 – Mt. Lemmon Survey MPS 203106
2007 03 12.30702 10 51 41.32 +03 23 48.8 19.1 V G96 – Mt. Lemmon Survey MPS 203106
2007 03 12.31542 10 51 40.96 +03 23 54.1 18.4 V G96 – Mt. Lemmon Survey MPS 203106
2007 03 14.26875 10 50 20.95 +03 43 59.2 18.9   704 – Lincoln Laboratory ETS, New Mexico MPS 203106
2007 03 14.27948 10 50 20.51 +03 44 05.7 19.0   704 – Lincoln Laboratory ETS, New Mexico MPS 203106
2007 03 14.29015 10 50 20.05 +03 44 12.6 19.0   704 – Lincoln Laboratory ETS, New Mexico MPS 203106
2007 03 14.30080 10 50 19.57 +03 44 19.5 19.6   704 – Lincoln Laboratory ETS, New Mexico MPS 203106
